Simultaneous Nadir Overpasses (SNOs) Predictions

Prediction of SNOs between AQUA and NOAA-19 Satellite Orbit:

Table of predicted SNOs for the next 14.0 days since TLE Epoch: 9/11/2020
Index Date (AQUA) Time (AQUA) Lat,Lon (AQUA) SZA (AQUA ) Date (NOAA-19) Time (NOAA-19) Lat,Lon (NOAA-19) SZA (NOAA-19 ) Distance(km) Time Diff (sec)
1 09/13/2020 06:35:20 -79.54,-125.88 103.02 09/13/2020 06:34:54 -79.52,-125.99 103.02 3.48 26
2 09/13/2020 07:24:47 79.55, 41.71 77.01 09/13/2020 07:25:58 79.56, 41.60 77.00 2.21 71
3 09/15/2020 12:09:04 79.54, -29.27 77.81 09/15/2020 12:08:14 79.53, -29.14 77.81 2.82 50
4 09/15/2020 12:58:31 -79.56, 138.20 102.14 09/15/2020 12:59:09 -79.54, 138.21 102.18 2.67 38
5 09/17/2020 18:32:14 79.52,-124.97 78.65 09/17/2020 18:32:29 79.54,-124.97 78.66 2.16 15
6 09/20/2020 00:05:58 -79.53, -28.45 100.50 09/20/2020 00:05:40 -79.53, -28.34 100.50 2.20 18
7 09/22/2020 05:39:41 79.51, 68.29 80.32 09/22/2020 05:39:00 79.52, 68.36 80.34 2.39 41
8 09/22/2020 06:29:08 -79.52,-124.15 99.66 09/22/2020 06:29:55 -79.54,-124.16 99.65 2.91 47
9 09/24/2020 11:13:25 -79.51, 164.83 98.83 09/24/2020 11:12:12 -79.49, 164.80 98.82 2.50 73
